Details for UPS at CYHM




Go Back


Latest METAR
Local Time

CYHM 240700Z 26004KT 15SM SKC 11/10 A3016 RMK SLP216

24/05/2018, 03:57:15

Description
Results
UPS Logo
Number of Pilots based at CYHM
0 Pilots Based here
Number of UPS Flights Departed from CYHM
0 Flights Departed
Number of UPS Flights Arrived at CYHM
0 Flights Arrived
Number of UPS Schedules Departing from CYHM
4 Schedules
Number of UPS Schedules Arriving at CYHM
7 Schedules
Number of UPS Schedules Departing from CYHM availible today
1 Schedules Today
Number of UPS Schedules Arriving at CYHM availible today
1 Schedules Today
Average Landing Rate at CYHM
0 fpm
UPS Average Landing Rate at CYHM
0 fpm
Total Fuel Purchased at CYHM by UPS
0.00 kgs / 0.00 lbs

Pilots Based at CYHM


Pilot ID
Pilot Name
Pilot Rank
No. of Flights
No. of Flying Hours
There are no pilots assigned to this hub!   Will you be the first?
Content